Regional Weather Roundup
Issued by NWS Charleston, SC

Current Version | Previous Version | Graphics & Text | Print | Product List | Glossary On
Versions: 1 2 3 4 5 6 7 8 9 10 11 12 13 14 15 16 17 18 19 20 21 22 23 24 25 26 27 28 29 30 31 32 33 34 35 36 37 38 39 40 41 42 43 44 45 46 47 48 49 50
791
ASUS42 KCHS 070412
RWRCHS

REGIONAL WEATHER ROUNDUP
NATIONAL WEATHER SERVICE CHARLESTON SC
1100 PM EST SAT FEB 06 2016

NOTE: "FAIR" INDICATES FEW OR NO CLOUDS BELOW 12,000 FEET WITH NO
SIGNIFICANT WEATHER AND/OR OBSTRUCTIONS TO VISIBILITY.

NOT ALL STATIONS ARE QUALITY CONTROLLED BY THE NATIONAL
WEATHER SERVICE. USE DATA WITH CAUTION...ESPECIALLY
DEWPOINT OBSERVATIONS.

NOTICE: OBSERVATIONS FOR THE SAVANNAH-HILTON HEAD INTERNATIONAL AIRPORT
/KSAV/ HAVE BEEN TEMPORARILY REMOVED DUE TO AN ERRONEOUS TEMPERATURE
SENSOR. THE OBSERVATION WILL BE REINTRODUCED ONCE REPAIRS ARE COMPLETE.

SCZ027-030-031-034>040-042>050-070500-
...SOUTHEAST SOUTH CAROLINA...

CITY           SKY/WX    TMP DP  RH WIND       PRES   REMARKS
N CHARLESTON   LGT RAIN  40  36  86 NE17G26   30.13F WCI  31
WATERFRONT PRK   N/A     41  39  93 N14       30.00F
MOUNT PLEASANT CLOUDY    39  37  93 N12G18    30.15F WCI  32
JOHNS ISLAND   LGT RAIN  41  37  87 N17G25    30.13F
PINOPOLIS        N/A    N/A N/A N/A NE16      30.12F
MONCKS CORNER  RAIN      37  32  81 NE10G20   30.16F WCI  30
SUMMERVILLE    RAIN      41  41 100 NE8       30.15F
BEAUFORT MCAS  RAIN      41  38  89 N15       30.14F FOG
BEAUFORT ARPT  LGT RAIN  41  39  93 N13G24    30.14R
HILTON HEAD IS LGT RAIN  43  39  87 N16G23    30.14S
WALTERBORO     DRIZZLE   43  37  81 N7        30.18R
ALLENDALE      MIX PCPN  43  36  75 N7        30.16F

...SOUTHERN MIDLANDS AND PEE DEE...

CITY           SKY/WX    TMP DP  RH WIND       PRES   REMARKS
GEORGETOWN     NOT AVBL
KINGSTREE      NOT AVBL
ORANGEBURG     CLOUDY    44  32  62 N8        30.19F
BARNWELL       CLOUDY    43  39  87 NE9       30.17F
AIKEN          CLOUDY    41  34  75 CALM      30.21F
MANNING        RAIN      37  34  87 NE9       30.18F WCI  31
COLUMBIA       CLOUDY    46  30  53 CALM      30.19F
SUMTER         CLOUDY    44  30  56 NE9       30.18F
FLORENCE       LGT RAIN  42  33  70 NE8       30.21F
MYRTLE BEACH   CLOUDY    41  30  65 N10       30.22F
N MYRTLE BEACH RAIN      40  36  86 N9        30.20F WCI  34

$$

GAZ063-065-086>088-099>101-113>116-118-119-134>141-150-070500-
...SOUTHEAST GEORGIA...

CITY           SKY/WX    TMP DP  RH WIND       PRES   REMARKS
SAVANNAH ARPT  RAIN      41  38  89 N15       30.13F
HUNTER AAF     LGT RAIN  41  40  98 N12       30.09F
FORT STEWART   RAIN      41  38  90 N12G20    30.10F
STATESBORO     LGT RAIN  45  36  71 NE7       30.14F
SYLVANIA       CLOUDY    43  39  87 NE7       30.16F
CLAXTON        LGT RAIN  41  40  97 N6        30.15F

...CSRA...CENTRAL AND FAR SOUTHEAST GEORGIA...

CITY           SKY/WX    TMP DP  RH WIND       PRES   REMARKS
THOMSON        CLOUDY    47  33  59 NE3       30.23F
AUGUSTA-BUSH   CLOUDY    42  39  89 NE3       30.18F
AUGUSTA-DANIEL LGT RAIN  44  32  62 N5        30.18F
SWAINSBORO     CLOUDY    41  36  81 NE5       30.18S
VIDALIA        DRIZZLE   41  37  87 N8        30.15F
EASTMAN        MOCLDY    42  35  76 CALM      30.20F
HAZLEHURST     CLOUDY    42  40  91 N7        30.15S
ALMA           LGT RAIN  40  39  97 N8        30.14F WCI  34
WAYCROSS       DRIZZLE   44  43  98 N10       30.13F
JESUP          LGT RAIN  43  43 100 NE8       30.13S
BAXLEY         RAIN      41  41 100 N7        30.14S
BRUNSWICK      DRIZZLE   41  41 100 N9G16     30.09F
SAINT SIMONS   LGT RAIN  42  41  96 N16G22    30.08F

$$

SCZ027-028-034-036>038-045-046-048>050-GAZ119-141-070500-
...LAKE AND SUPPLEMENTAL COASTAL OBSERVATIONS...

STATION/POSITION TIME  TEMP    WIND        PRES    WAVE   SWELL
                       AIR SEA DIR/SP/G            HT/PER HT/PER/DIR
                 (UTC) (F)     (DEG/KT/KT) (MB)    (FT/S) (FT/S/D)
WINYAH BAY       0245   41      20/  3     1021.0
LAKE MURRAY      0300   46      10/  1/  3 1023.0S
ACE BASIN NERRS  NOT AVBL
FORT PULASKI     0300   43 54  360/ 13/ 18 1020.7F
SAPELO ISLAND    0300   43     360/ 20     1019.0F

$$

ANZ835-935-AMZ111-154-330-350-352-354-370-450-454-472-070500-
...C-MAN AND BUOY OBSERVATIONS...

STATION/POSITION TIME  TEMP    WIND        PRES    WAVE   SWELL
                       AIR SEA DIR/SP/G            HT/PER HT/PER/DIR
                 (UTC) (F)     (DEG/KT/KT) (MB)    (FT/S) (FT/S/D)
BUOY 41004       0350   50 64   10/ 29/ 35 1017.6F   8/ 6   3/11
BUOY 41008       0350   47 56   20/ 25/ 29 1018.6R
FOLLY BEACH CMAN 0400   42      10/ 18/ 22 1020.3F
CAPERS NEARSHORE 0308   44      30/ 23/ 29 1021.1F
FRIPP NEARSHORE  0300   44      30/ 23/ 29 1020.1F


STATION/POSITION TIME  TEMP    WIND        PRES    WAVE   SWELL
                       AIR SEA DIR/SP/G            HT/PER HT/PER/DIR
                 (UTC) (F)     (DEG/KT/KT) (MB)    (FT/S) (FT/S/D)
5E ST. MARYS GA  0321      57                N/A     7/ 7   2/110/11
FRYING PAN BUOY  0300   55 69   20/ 23/ 29 1020.0F
BUOY 41025       0350   54 71   20/ 19/ 21 1022.4F   6/10   5/ 80/10
CAPE LOOKOUT NC  NOT AVBL
BUOY 41002       0350   63 69  100/ 17/ 21   N/A     7/10   5/ 40/10
BUOY 41010       0320   67 75              1015.4F
ST AUGUSTINE FL  0400   46 57  310/ 11/ 16 1017.8R


$$




USA.gov is the U.S. government's official web portal to all federal, state and local government web resources and services.